GFSSE_500_spd_021.txt.gz
Wind_Speed
2 3 6 8 6 4 4 8 11 12 12 11 12 10 10 13 17 20 18 17 18 20 19 16 14 14 15 14 14 15 15 14 13 12 10 10 8 8 8 9 8 7 7
3 1 1 3 5 3 3 4 7 10 12 12 13 13 13 11 11 15 19 19 19 18 16 17 13 13 14 15 16 16 15 15 14 14 12 12 11 10 9 9 8 8 9
5 4 3 2 1 0 1 2 4 7 9 10 12 13 15 15 14 14 16 20 16 14 16 17 16 17 16 16 16 16 16 16 15 15 14 13 13 12 12 11 9 9 8
8 8 7 6 6 5 4 3 4 6 7 8 8 9 9 11 15 17 18 17 15 15 16 16 17 18 17 18 16 17 17 17 16 16 15 15 16 15 14 13 12 12 12
8 9 10 9 9 9 8 7 7 6 6 6 8 9 10 11 11 13 16 17 18 18 18 18 18 18 18 19 17 17 17 17 17 17 17 16 17 16 14 14 14 14 13
6 8 9 12 12 12 12 12 12 11 11 10 10 9 10 11 11 12 13 14 14 16 17 17 17 18 19 18 17 17 16 16 16 16 15 14 16 15 14 14 13 11 11
7 6 7 9 11 14 15 14 15 16 14 14 14 13 13 13 13 13 14 15 15 16 16 16 15 15 16 16 16 17 16 16 15 15 14 14 14 13 12 12 12 11 10
9 10 8 8 9 10 14 16 17 17 18 18 18 17 16 16 15 16 16 16 16 16 16 16 15 15 16 16 16 16 16 15 16 15 15 15 15 15 14 13 12 11 9
13 12 12 12 12 11 11 13 16 18 20 20 20 20 20 20 19 19 19 19 19 20 20 20 19 19 19 19 17 16 16 17 18 19 18 18 17 16 14 14 13 12 11
18 17 16 16 15 14 14 14 13 15 17 20 21 22 23 22 23 24 24 24 24 24 23 23 23 22 21 20 19 18 18 17 17 18 18 17 18 17 16 15 15 16 16
24 22 22 21 21 19 17 17 16 16 16 16 18 20 21 22 24 25 27 28 28 28 28 27 26 25 25 25 25 24 22 22 21 21 21 21 20 21 21 20 21 21 22
29 28 27 25 26 25 23 22 20 19 18 19 19 20 19 20 21 22 25 27 29 30 31 31 30 29 28 28 28 28 27 27 26 26 25 25 26 26 26 25 24 24 25
31 32 32 30 28 28 29 29 26 24 23 23 22 23 22 22 23 24 25 24 26 28 30 32 33 34 33 32 31 31 30 30 29 29 29 29 29 29 29 30 31 31 31
31 32 31 30 28 28 31 33 32 30 29 28 28 27 27 26 26 27 27 27 28 28 28 29 32 34 35 35 35 35 34 33 32 32 33 33 33 33 34 34 34 35 35
28 28 29 29 29 29 29 32 32 34 33 33 32 31 32 31 31 31 31 31 30 29 29 30 31 32 33 35 36 36 36 36 36 36 37 37 37 38 38 38 39 40 39
29 30 31 30 32 31 28 27 27 28 30 32 33 34 36 35 35 36 35 35 34 34 33 32 32 33 34 35 35 35 36 36 37 38 39 39 39 40 40 40 41 41 41
31 31 32 34 35 34 33 32 29 28 28 27 29 31 33 35 36 37 38 38 38 37 36 36 36 35 35 36 36 37 36 36 37 38 38 38 37 38 38 39 40 41 42
35 34 33 34 37 38 38 37 35 34 31 28 29 29 30 33 34 36 37 38 40 40 40 39 39 38 37 36 36 37 38 39 40 40 40 39 39 39 39 39 40 40 39
39 36 34 33 34 38 40 39 39 38 36 35 32 30 32 35 37 38 37 38 39 40 40 40 41 41 39 38 38 39 40 41 42 43 42 40 40 40 40 41 41 41 39
42 38 35 35 36 38 41 42 40 40 40 40 39 35 36 38 41 41 39 39 39 39 38 39 40 43 42 41 40 41 41 42 42 42 43 43 41 42 41 41 41 41 42
38 39 39 36 33 34 37 39 41 41 42 42 43 42 40 40 42 44 41 42 40 39 40 41 42 43 44 44 45 45 46 44 44 45 45 44 43 42 41 41 40 40 40
39 37 39 40 41 39 38 41 41 42 42 42 44 45 44 44 43 44 43 44 43 46 46 45 44 44 45 46 48 50 50 49 47 48 48 47 46 44 42 41 42 41 41
44 43 42 42 45 44 40 39 41 41 42 46 45 46 44 48 48 49 50 50 48 49 49 49 48 47 46 46 47 48 49 50 51 52 50 49 49 48 45 44 44 44 43
47 46 43 41 40 41 43 38 37 38 42 43 42 43 45 49 52 54 54 53 52 52 52 51 52 52 51 49 50 48 50 50 51 52 53 52 52 50 48 47 46 45 45
47 44 44 47 48 45 46 48 49 49 45 48 46 45 46 47 50 52 54 56 55 53 53 54 55 56 57 57 54 53 53 52 50 51 50 53 54 54 52 51 51 50 49
45 45 52 54 55 55 54 53 54 53 52 51 52 53 52 50 51 53 55 56 56 56 57 58 59 60 62 62 60 59 55 54 54 54 53 54 56 56 55 54 54 53 52

GFSSE_500_spd_024.txt.gz
Wind_Speed
3 5 7 9 8 4 1 8 12 14 13 12 12 10 10 13 18 17 16 16 18 17 15 16 16 17 16 15 15 14 13 12 11 10 9 9 8 8 7 7 7 6 6
5 3 4 5 6 5 2 2 7 11 11 11 11 11 10 9 12 18 19 18 18 17 18 18 16 15 13 16 16 16 15 13 13 12 11 11 10 9 8 8 7 7 7
8 5 4 5 5 4 4 2 2 5 8 10 12 12 13 12 12 14 15 18 17 15 17 16 15 13 11 12 14 15 15 14 14 14 13 13 12 12 11 11 9 8 9
8 9 8 6 6 7 5 3 3 4 5 7 8 10 11 13 16 15 14 16 17 15 15 15 16 16 14 15 15 14 15 15 15 14 14 16 15 15 14 14 13 12 12
8 9 9 10 9 9 9 8 6 4 4 5 7 8 8 10 12 15 16 16 17 17 16 15 15 17 15 17 17 18 17 17 16 16 16 16 17 17 16 16 15 15 15
7 8 8 9 11 12 12 12 11 10 9 9 8 7 8 9 9 10 12 16 17 18 17 17 17 17 17 18 18 19 18 17 17 18 16 19 18 17 17 16 15 15 14
8 8 9 9 9 11 14 14 14 14 14 13 12 12 11 10 11 11 11 12 12 14 16 16 17 17 16 16 16 16 17 15 15 15 13 16 16 14 14 14 13 12 12
12 10 10 10 10 10 10 13 16 17 17 17 17 16 15 14 14 14 13 13 13 14 15 15 16 14 14 15 15 16 16 16 16 15 15 16 16 15 15 15 13 13 12
16 15 13 12 12 12 12 11 12 15 18 20 19 19 19 18 17 17 17 16 17 17 18 18 17 17 17 18 18 18 19 19 20 19 19 18 18 18 17 17 15 14 13
20 20 19 18 16 15 14 13 14 13 14 16 20 21 22 21 21 21 21 21 21 21 21 21 21 22 22 22 22 22 21 19 19 19 20 20 21 21 19 18 15 16 16
24 23 23 22 22 21 19 18 17 15 15 17 16 16 19 21 23 24 24 25 26 26 25 26 26 26 26 25 24 23 22 21 21 20 19 19 21 21 20 19 19 19 19
25 26 26 26 25 25 24 23 22 21 20 19 19 19 18 17 18 19 21 23 25 27 28 30 30 30 29 28 27 27 27 27 26 26 25 24 24 24 23 23 23 23 23
23 23 25 26 27 27 27 26 27 26 25 24 23 22 21 20 20 21 21 21 22 22 24 27 30 32 32 33 32 30 30 30 30 30 30 28 29 28 28 28 28 28 28
23 22 22 23 23 25 25 25 26 27 29 29 28 26 27 26 24 25 25 24 24 24 24 26 26 27 29 32 34 34 34 34 33 32 32 31 30 30 31 31 31 31 32
29 27 23 23 23 24 26 27 26 26 27 30 31 30 30 30 30 31 30 30 28 28 26 28 27 27 27 28 30 31 33 35 35 36 36 35 34 33 34 34 34 35 36
29 29 28 25 27 27 27 29 29 28 27 27 28 28 29 31 32 34 34 34 34 33 31 31 30 30 30 29 29 30 32 32 32 32 33 34 35 35 36 36 38 37 38
33 31 30 30 29 31 32 32 32 32 31 29 29 28 27 28 29 31 33 35 35 36 36 36 35 34 33 33 33 31 31 32 33 33 33 34 35 36 37 37 37 37 37
37 35 34 34 33 33 36 36 36 37 37 35 33 33 30 30 32 31 33 34 36 36 37 38 38 37 37 36 36 34 33 32 32 33 35 36 37 37 37 36 37 37 36
39 38 38 36 36 34 34 36 37 36 37 39 39 38 37 36 37 35 36 37 39 38 39 38 38 40 40 39 38 37 36 35 35 36 37 37 39 39 40 38 37 37 37
38 39 39 40 38 37 38 38 40 41 40 40 43 42 41 39 41 41 40 41 42 41 41 39 40 41 41 41 40 40 39 38 38 38 38 38 40 40 40 39 39 38 38
41 41 39 39 39 37 39 42 40 37 39 38 38 43 44 42 43 44 44 44 44 44 44 43 40 41 41 42 42 42 43 42 40 39 40 42 42 42 42 41 41 40 39
43 41 39 39 40 42 42 40 41 43 43 43 41 41 43 43 43 45 47 47 47 46 46 45 44 45 46 45 45 45 45 44 43 43 43 44 45 44 43 44 44 43 40
47 47 46 44 44 45 45 45 46 46 47 47 48 45 42 43 46 46 46 47 48 49 50 49 47 48 49 48 48 49 47 45 44 45 45 45 45 45 45 46 46 46 43
49 49 51 48 47 46 46 45 44 45 44 46 46 42 44 46 45 45 47 49 50 48 51 52 52 50 53 52 52 52 52 51 48 46 47 49 48 46 46 47 47 48 46
42 45 47 48 49 46 40 41 42 46 49 49 49 49 50 49 50 51 50 51 51 51 50 50 50 50 51 52 52 53 55 54 53 51 50 51 53 52 51 47 46 47 47
40 42 48 52 56 51 49 46 47 49 55 55 59 62 59 55 56 56 57 57 57 57 56 54 53 54 53 53 53 54 56 56 57 55 54 55 55 55 55 53 51 50 48

GFSSE_500_spd_030.txt.gz
Wind_Speed
6 7 8 9 11 11 9 1 10 16 17 16 14 13 15 15 15 15 14 12 10 14 17 18 18 17 15 16 16 15 14 14 12 11 9 8 7 6 6 6 7 6 6
5 5 7 7 7 9 9 8 4 5 11 12 11 11 11 12 13 13 15 12 10 11 11 11 12 12 12 14 15 15 15 14 14 13 11 10 8 8 7 6 7 7 7
6 5 5 5 5 5 5 6 5 3 1 6 9 10 10 11 11 11 12 13 14 13 10 12 10 10 10 11 10 11 14 15 13 12 12 12 11 10 10 11 11 11 11
9 7 5 5 5 5 4 2 2 1 1 3 5 7 9 10 11 12 11 9 11 14 10 11 10 11 11 11 10 8 8 10 10 13 13 13 13 14 13 14 14 14 13
9 9 8 6 6 6 6 6 4 3 2 2 4 6 6 8 10 11 13 11 11 12 14 13 12 13 13 13 14 13 12 12 13 15 14 13 15 16 16 17 17 18 18
9 8 9 8 6 6 6 8 8 7 7 6 6 6 6 8 8 10 11 12 13 13 14 17 17 15 16 13 15 14 14 14 15 17 17 16 17 17 18 18 18 19 19
10 8 8 8 8 7 5 6 8 10 11 11 10 10 10 9 9 10 11 11 12 15 16 16 17 16 17 16 16 15 14 14 14 16 16 16 15 17 17 18 19 18 18
12 12 10 9 9 9 8 7 7 8 11 14 14 14 14 13 13 13 13 13 13 14 15 16 17 17 17 17 17 17 15 14 15 16 16 16 15 16 17 17 17 19 18
14 14 14 13 13 12 11 11 9 10 10 11 13 16 17 17 17 16 16 16 16 16 16 17 17 17 18 18 18 17 16 16 16 17 17 18 18 18 19 19 20 19 19
14 16 16 16 16 16 15 14 14 13 12 12 13 13 15 19 22 21 20 20 20 20 20 19 19 19 19 19 20 19 17 18 19 20 20 21 21 20 21 21 21 22 22
14 16 18 19 19 19 19 19 18 18 17 17 16 15 16 16 19 22 23 25 24 24 24 24 24 23 22 23 23 22 23 22 22 22 22 22 20 20 20 21 21 22 21
14 15 18 20 20 20 21 23 23 22 21 21 21 21 19 19 20 21 22 23 26 27 28 28 27 28 28 27 27 26 26 26 25 25 25 25 24 24 23 23 22 22 20
19 18 17 18 21 21 22 23 25 26 25 24 24 24 24 24 24 24 24 24 24 25 26 27 27 28 29 30 31 31 31 30 29 28 28 29 29 28 28 27 25 25 24
25 25 23 20 20 22 22 22 23 23 25 27 27 26 26 27 28 29 29 29 27 27 27 29 28 29 29 29 29 30 32 33 33 34 33 31 31 32 31 30 30 29 28
22 24 25 24 23 23 22 24 25 25 25 26 27 28 28 28 29 32 33 33 33 32 32 32 31 31 31 31 31 32 32 32 32 34 34 35 34 34 33 33 34 33 32
24 25 26 25 26 27 27 27 28 28 29 28 28 30 31 30 30 31 34 36 36 37 38 37 36 36 35 35 34 34 34 34 34 34 34 34 35 35 35 35 34 33 34
29 28 26 27 28 30 30 31 31 31 32 33 33 34 34 34 34 34 34 34 36 38 39 40 41 41 40 40 39 38 37 36 36 35 35 35 36 36 37 36 36 35 36
27 29 30 29 28 30 33 33 33 33 34 37 38 39 38 38 39 38 38 38 38 37 38 39 42 42 43 43 43 42 41 40 39 39 39 39 38 37 38 38 39 38 37
30 30 29 30 31 31 29 32 34 33 35 37 40 41 42 42 42 42 43 43 43 41 41 42 43 44 45 45 45 44 43 43 44 43 43 42 41 41 40 40 39 38 38
37 36 35 32 31 33 34 34 34 36 37 39 40 42 43 43 45 45 45 47 48 47 46 47 47 48 47 48 46 44 43 43 44 46 46 45 45 44 43 42 41 39 38
36 38 38 39 39 37 36 36 38 38 37 37 40 41 42 43 44 47 48 50 51 51 51 51 51 51 50 51 51 48 46 46 46 46 45 45 45 46 46 44 42 41 40
38 38 39 40 39 39 39 40 40 40 41 42 42 43 45 47 47 46 46 47 48 50 51 53 54 54 54 55 54 52 51 49 48 46 46 44 44 45 45 45 45 44 44
36 38 39 41 43 44 43 41 41 42 44 46 48 50 51 51 52 54 53 53 52 52 50 50 50 51 53 55 55 56 57 52 48 49 48 48 46 45 45 45 45 46 47
41 42 43 42 43 45 48 48 45 45 45 45 47 50 53 55 54 53 53 53 51 52 52 51 51 50 50 51 54 54 56 58 55 51 51 50 49 48 49 50 51 49 48
42 42 43 41 41 43 47 50 50 48 48 49 51 50 51 54 58 59 59 58 58 56 54 51 52 52 53 54 54 54 55 58 58 58 55 55 56 55 55 54 54 52 50
48 48 48 48 45 45 46 48 50 54 55 56 56 57 59 58 60 62 65 64 64 63 63 62 60 57 57 56 56 57 58 59 60 61 62 60 60 59 59 58 57 55 53

GFSSE_500_spd_033.txt.gz
Wind_Speed
5 6 7 8 9 9 8 1 7 12 13 13 12 12 12 13 14 14 15 14 12 12 15 17 18 19 19 18 16 14 14 14 14 12 10 8 6 6 7 7 6 6 7
6 5 6 6 6 8 8 9 6 2 9 13 11 9 10 10 11 13 13 15 12 7 7 11 14 16 16 14 12 13 14 15 13 12 11 9 8 8 7 6 7 6 7
10 7 4 5 5 5 6 7 6 5 2 3 6 8 8 8 8 9 11 11 14 12 9 9 11 11 11 9 10 10 12 14 13 14 12 9 9 10 10 10 11 10 10
10 10 7 5 3 4 3 3 3 3 1 1 2 4 6 8 9 9 10 10 10 12 12 10 10 9 10 9 10 9 8 9 11 11 11 11 11 12 12 13 13 13 13
8 7 7 7 5 3 4 3 2 2 2 1 3 4 5 7 9 10 10 11 12 11 11 12 10 10 12 12 12 13 12 13 13 13 12 13 13 13 14 16 16 17 17
8 7 6 6 6 6 4 4 5 4 5 5 5 4 4 7 8 9 10 10 12 13 12 13 14 14 15 15 14 14 13 14 16 15 15 16 17 16 16 16 17 17 18
10 10 8 7 6 6 6 5 4 6 8 9 9 9 8 8 8 9 9 10 11 12 14 14 15 16 16 16 17 15 14 14 16 15 16 17 17 17 17 16 17 18 18
13 12 12 11 10 9 7 6 6 7 7 9 12 12 12 12 12 12 12 12 12 13 14 15 16 18 18 18 18 17 17 17 16 16 16 16 15 16 17 16 17 17 18
12 13 14 15 15 14 13 12 10 9 9 10 11 12 15 16 16 15 16 16 16 16 17 17 17 18 19 19 19 19 18 19 17 18 18 17 17 17 19 18 19 19 18
13 13 13 15 16 17 17 16 15 15 13 13 13 13 14 15 18 19 20 20 21 21 20 20 20 20 20 20 20 20 20 20 19 19 19 20 20 20 21 21 21 21 20
15 15 16 14 15 16 17 19 20 20 19 18 18 17 16 17 19 18 19 23 25 25 24 24 24 23 23 23 23 22 23 23 23 22 22 23 23 22 21 20 20 21 20
17 18 19 20 18 17 18 19 20 22 23 23 23 22 21 21 22 21 21 23 23 25 27 28 28 27 27 27 27 27 27 27 27 27 26 25 25 24 23 23 22 23 21
20 19 20 19 20 21 21 20 20 21 23 25 26 27 26 25 25 26 25 25 26 27 27 28 29 29 30 30 30 31 31 32 31 31 30 29 28 28 28 28 27 27 24
20 21 21 23 23 24 24 24 24 23 23 23 25 27 28 29 29 29 30 30 30 30 31 31 31 31 31 31 31 31 32 33 34 34 34 34 33 32 33 32 31 30 28
18 20 22 22 24 25 26 28 28 27 27 27 26 26 27 29 30 31 32 33 34 35 35 36 35 34 34 34 34 34 34 34 34 34 34 35 35 36 36 36 34 33 32
24 23 24 24 25 26 29 30 30 31 31 31 30 31 30 31 32 34 34 35 35 37 40 40 40 39 38 38 38 38 37 37 36 36 36 36 36 37 37 37 38 37 36
27 28 27 26 26 28 29 31 34 34 33 34 34 34 34 35 36 37 37 39 39 38 38 41 43 43 43 43 43 43 42 41 40 39 38 38 38 39 38 38 38 37 37
26 25 27 29 27 27 29 31 33 35 36 37 38 39 38 38 38 40 41 42 44 45 41 41 42 44 45 45 46 46 45 44 44 43 43 43 43 42 41 40 40 40 40
31 30 29 31 33 33 32 32 32 34 36 36 38 41 43 43 43 43 44 45 47 49 49 47 46 47 47 47 47 46 45 44 44 44 46 47 47 47 45 44 44 42 41
33 33 31 30 31 34 36 35 35 35 36 38 39 40 42 45 47 47 47 48 50 50 51 52 52 53 52 52 52 50 49 46 45 44 43 44 46 49 50 49 48 47 45
34 35 36 36 35 35 35 36 39 42 42 41 42 45 46 46 45 47 47 48 48 49 52 53 54 56 56 58 58 56 54 52 50 48 46 45 45 47 49 50 50 49 48
37 38 37 36 36 37 39 40 41 42 43 45 47 47 48 49 49 50 50 50 50 50 52 54 56 56 58 59 60 60 60 58 56 53 52 50 49 48 48 49 50 50 50
36 37 37 37 38 39 39 40 41 42 44 46 49 51 53 54 54 54 56 57 56 55 55 55 56 57 57 58 60 60 59 57 58 58 58 56 54 51 51 50 49 50 51
39 40 41 41 41 42 42 43 45 46 48 48 49 52 53 56 58 57 56 56 58 59 58 57 58 60 60 60 61 62 62 60 57 56 57 60 59 57 54 53 53 53 52
40 40 39 40 41 42 43 45 46 49 51 53 56 57 57 58 58 58 58 57 58 60 62 60 58 59 60 60 61 63 63 64 63 60 56 58 59 61 60 57 56 56 55
47 47 47 48 50 50 51 52 53 55 56 58 59 63 65 64 62 62 63 64 64 64 66 68 68 68 66 63 63 62 63 63 65 65 64 59 59 60 61 62 62 61 60